Regional Weather Roundup
Issued by NWS Sterling, VA

Home | Current Version | Previous Version | Graphics & Text | Print | Product List | Glossary On
Versions: 1 2 3 4 5 6 7 8 9 10 11 12 13 14 15 16 17 18 19 20 21 22 23 24 25 26 27 28 29 30 31 32 33 34 35 36 37 38 39 40 41 42 43 44 45 46 47 48 49 50
000
ASUS41 KLWX 191711
RWRLWX

REGIONAL WEATHER ROUNDUP
NATIONAL WEATHER SERVICE BALTIMORE MD/WASHINGTON DC
1200 PM EST MON FEB 19 2018

Note: "FAIR" indicates few or no clouds below 12,000 feet
with no significant weather and/or obstructions to visibility.
 TC=TEMPERATURE CELSIUS

 * =Non NWS site. Station does not report precipitation (e.g. rain,
    snow, etc.), thunder, or fog.

DCZ001-MDZ009-015-VAZ040>042-051-053>054-191800-
WASHINGTON METRO

CITY           SKY/WX    TMP DP  RH WIND       PRES   REMARKS
WASHINGTON NAT CLOUDY    44  39  82 S9        30.46F
DULLES         DRIZZLE   41  40  96 S10       30.43F FOG     WCI  35
ANDREWS AFB    CLOUDY    44  38  82 S8        30.44F
FT BELVOIR     LGT RAIN  41  39  93 S5        30.45F
QUANTICO       CLOUDY    43  42  97 S7        30.47F FOG
COLLEGE PARK*  CLOUDY    42  37  79 S7        30.45F
LEESBURG*      CLOUDY    41  41 100 S10       30.42F WCI  35
MANASSAS*      LGT RAIN  42  41  96 S8        30.44F FOG
GAITHERSBURG*  CLOUDY    41  38  89 S7        30.43F

$$

MDZ006>007-011-014-191800-
BALTIMORE METRO

CITY           SKY/WX    TMP DP  RH WIND       PRES   REMARKS
BWI AIRPORT    CLOUDY    42  39  89 S5        30.45F
MD SCIENCE CTR   N/A     42  39  89 MISG      30.47F
MARTIN STATE   CLOUDY    43  41  93 SE5       30.48F FOG
ANNAPOLIS      CLOUDY    42  41  96 SE7       30.46F
FORT MEADE*    CLOUDY    41  37  87 S3        30.47F

$$

MDZ012-015-019>023-191800-
MARYLAND EASTERN SHORE

CITY           SKY/WX    TMP DP  RH WIND       PRES   REMARKS
OCEAN CITY     CLOUDY    50  45  83 VRB5      30.49F
SALISBURY      CLOUDY    53  47  79 S7        30.46F
CAMBRIDGE*     CLOUDY    48  45  87 S6        30.47F
EASTON*        PTSUNNY   48  41  76 S5        30.50F

$$

MDZ017>025-191800-
SOUTHERN MARYLAND

CITY           SKY/WX    TMP DP  RH WIND       PRES   REMARKS
PATUXENT RIVER CLOUDY    43  42  97 SE7       30.45F
ST INIGOES     CLOUDY    48  30  49 S7        30.45F
LEONARDTOWN*   CLOUDY    46  43  87 SE3       30.47F

$$

MDZ003>005-191800-
NORTH CENTRAL MARYLAND

CITY           SKY/WX    TMP DP  RH WIND       PRES   REMARKS
FREDERICK*     CLOUDY    45  36  70 S7        30.45F
HAGERSTOWN APT LGT RAIN  44  37  76 S15       30.35F
WESTMINSTER*   NOT AVBL

$$

MDZ501>502-191800-
WESTERN MARYLAND

CITY           SKY/WX    TMP DP  RH WIND       PRES   REMARKS
OAKLAND*         N/A     46  46 100 S12       30.23F
CUMBERLAND*    PTSUNNY   46  37  71 N3        30.35F

$$

VAZ025>031-191800-
SHENANDOAH VALLEY

CITY           SKY/WX    TMP DP  RH WIND       PRES   REMARKS
WINCHESTER*    CLOUDY    46  41  81 S9        30.36F
FRONT ROYAL*   PTSUNNY   52  45  76 SW7G16    30.33F
LURAY*         PTSUNNY   52  45  76 SW9       30.35F
NEW MARKET*    PTSUNNY   55  46  74 S13G21    30.34F
STAUNTON*      CLOUDY    50  44  81 S3        30.39F
WAYNESBORO*    CLOUDY    54  47  80 W3        30.36F

$$

WVZ021-048>050-054>055-191800-
EASTERN WEST VIRGINIA PANHANDLE

CITY           SKY/WX    TMP DP  RH WIND       PRES   REMARKS
MARTINSBURG    CLOUDY    46  39  76 S8        30.35F
PETERSBURG*    FAIR      60  47  61 S15G24    30.28F

$$

VAZ036>039-050-191800-
CENTRAL FOOTHILLS

CITY           SKY/WX    TMP DP  RH WIND       PRES   REMARKS
CHARLOTTESVILL CLOUDY    47  42  83 S7        30.41F
CULPEPER*      CLOUDY    43  41  91 S5        30.44F FOG
ORANGE*        CLOUDY    43  41  93 S6        30.43F FOG
GORDONSVILLE*  CLOUDY    43  43 100 SW6       30.42F FOG
WARRENTON*     CLOUDY    43  39  86 S5        30.43F FOG

$$

VAZ055>057-191800-
NORTH AND CENTRAL PIEDMONT

CITY           SKY/WX    TMP DP  RH WIND       PRES   REMARKS
FREDERICKSBRG* CLOUDY    43  43 100 S3        30.45F FOG
STAFFORD*      DRIZZLE   42  42 100 CALM      30.49F

$$

NCZ024-NYZ072-PAZ021-071-VAZ022-071-191800-
OTHER REGIONAL OBSERVATIONS

CITY           SKY/WX    TMP DP  RH WIND       PRES   REMARKS
NEW YORK CITY  CLOUDY    47  35  63 VRB7      30.48F
PHILADELPHIA   CLOUDY    47  37  68 SW8       30.47F
PITTSBURGH     LGT RAIN  50  49  96 SE5       30.15S
ROANOKE        CLOUDY    42  41  96 CALM      30.44F
RICHMOND       LGT RAIN  44  43  96 S3        30.45F FOG
RALEIGH        CLOUDY    45  44  97 N5        30.46F FOG

$$

ANZ530>537-191800-
MARINE OBSERVATIONS

STATION/POSITION TIME  TEMP    WIND        PRES
                       AIR SEA DIR/SP/G
                 (UTC) (F)     (DEG/KT/KT) (MB)
THOMAS PT LIGHT  1700   39 38     CALM       N/A
BALT KEY BRIDGE  1642   40      90/  4/  4 1031.8F
COVE POINT       1642   40     170/  7/  8 1032.2F
LEWISETTA        1642   49 44  220/  2/  3 1031.6F
SOLOMONS ISLAND  1642   41 40   90/  6/  7 1031.1F

$$




USA.gov is the U.S. government's official web portal to all federal, state and local government web resources and services.